loading
|

STARLINK-32133, 60333

Orbit data source: Space-Track

STARLINK-32133, 60333 is a payload satellite owned by SpaceX/Seattle (US) in LEO that was launched on Fri, 02 Aug 2024 UTC via an FALCON 9 launch vehicle from the Air Force Eastern Test Range (AFETR). Payloads include a variety of satellites, spacecraft, and rockets equipped with specific instruments for various scientific and technological missions. These include communications satellites like Starlink; space stations such as the ISS; scientific satellites like the Hubble; Earth observation satellites from companies like Planet Labs, Umbra, and HawkEye 360; GPS; miniature CubeSats for education and research; and military/defense satellites.

Loading next visibility...
Loading greatness...
STARLINK-32133 details
Identifier
60333, 2024-136E
Orbit
LEO
Last TLE update8 hours ago
Origin
Flag of USSpaceX/Seattle (US)
ManufacturerSpaceX/Seattle
Mission statusOperational
MissionUnknown
Bus & MotorSTARLINK V2M, Unknown motor
Mass750 kg wet, ~700 kg dry
Launch date (UTC)
2024-08-02 (2 months ago)
Launch vehicle
FALCON 9
Launch site
Air Force Eastern Test Range (AFETR)
Object type
Payload
Rocket body
Debris
Radar Cross SectionLarge (>1 m²)

Expand to show TLE details & history

TLE from 8 hours ago
0 STARLINK-32133
1 60333U 24136E   24261.58335648 -.00021581  00000-0 -53041-3 0  9993
2 60333  53.1620  55.7512 0001408  86.6047 108.2733 15.39656196  8275
Epoch: 2024-09-17T14:00Z
Definitive object data (Epoch: 2024-09-17T14:00:01.999Z)
Latitude-12.01887°
Longitude37.87292°
Altitude450.661 km
Speed7.642 km/s
True Right ascension16h 19m 30s
True Declination-11° 56' 45"
Sunlit
Object was in daylight at TLE epoch
Predictive object data (real-time)
Latitude-46.52333°
Longitude155.34737°
Altitude463.867 km
Speed7.634 km/s
Apparent Right ascension01h 37m 36s
Apparent Declination-45° 14' 19"
Sunlit
Object is in full shadow
Predictive observer data (real-time)
Local Sidereal Time15:02:21
Azimuth115.852° SE
Elevation-73.574°
Doppler factor1
Orbital elements
Apogee448.343 km
Perigee446.421 km
Semi-major axis6,825.519 km
Eccentricity0.0001408
Inclination53.162°
RAAN55.7512°
Arg. of periapsis86.6047°
True anomaly108.28862°
Mean anomaly108.2733°
Eccentric anomaly108.28096°
Mean motion3.84893 °/min
BSTAR-0.00053041
Period93.53 mins
No data available

STARLINK-32133 Visibility forecast

Observer location: 39.9160978°, -105.1181434

STARLINK-32133 is not visible in the next 10 days
Span
Click to sort rows by Start time (UTC) header in descending order
Start Az.
Max El. time (UTC)
Max El. Az.
Max El.
End time (UTC)
End Az.